Regional Weather Roundup
Issued by NWS New Orleans/Baton Rouge, LA

Home | Current Version | Previous Version | Graphics & Text | Print | Product List | Glossary On
Versions: 1 2 3 4 5 6 7 8 9 10 11 12 13 14 15 16 17 18 19 20 21 22 23 24 25 26 27 28 29 30 31 32 33 34 35 36 37 38 39 40 41 42 43 44 45 46 47 48 49 50
073
ASUS44 KLIX 231401
RWRLIX
NEW ORLEANS REGIONAL WEATHER ROUNDUP
NATIONAL WEATHER SERVICE NEW ORLEANS LA
900 AM CDT WED APR 23 2014

NOTE: "FAIR" INDICATES FEW OR NO CLOUDS BELOW 12,000 FEET WITH NO
      SIGNIFICANT WEATHER AND/OR OBSTRUCTIONS TO VISIBILITY.
      SKY/WX - SKY CONDITION AND SIGNIFICANT WEATHER.
      TMP - AIR TEMPERATURE.     DP    - DEWPOINT TEMPERATURE.
      RH  - RELATIVE HUMIDITY.   PRES  - PRESSURE.
      HI  - HEAT INDEX.          WCI   - WIND CHILL INDEX.

*  THESE STATIONS ARE NOT NWS OR FAA STATIONS AND ARE NOT UNDER
   NWS QUALITY CONTROL.

LAZ038-040-048-061>063-065>067-069-231500-
SOUTHEAST LOUISIANA

CITY           SKY/WX    TMP DP  RH WIND       PRES   REMARKS
N.O. AUDUBON     N/A     76  62  62 MISG        N/A
N.O. INTL ARPT SUNNY     72  63  73 NE8       29.98S
N.O. LAKEFRONT SUNNY     70  62  76 NE6       29.99R
N.O. DOWNTOWN*   N/A     72  59  64 N6        29.99S
SLIDELL        SUNNY     70  61  73 NE7       29.97S
BATON ROUGE    SUNNY     71  61  70 NE7       29.99R
BOOTHVILLE     SUNNY     70  66  87 VRB5      29.98S
BELLE CHASSE   SUNNY     72  62  71 VRB3      29.98R
BOGALUSA*        N/A     69  59  70 NE5       30.00S
GALLIANO*      SUNNY     64  62  96 NW5       29.99R
NEW ROADS*     NOT AVBL
GONZALES*        N/A     71  62  72 NE7       29.98S
HAMMOND*       SUNNY     72  57  60 CALM      30.00S
HOUMA*         SUNNY     70  64  83 N6        29.99S
PORT FOURCHON* SUNNY     73  64  73 NE5       30.00R

$$

MSZ070-080>082-231500-
SOUTHERN MISSISSIPPI

CITY           SKY/WX    TMP DP  RH WIND       PRES   REMARKS
MCCOMB         SUNNY     69  56  62 NE6       29.99S
GULFPORT       SUNNY     73  62  68 N5        29.97S
BILOXI         NOT AVBL
PASCAGOULA     SUNNY     68  64  87 CALM      29.97S
STENNIS ARPT*  SUNNY     63  55  77 CALM      29.98S

$$

COASTAL OBSERVATIONS
LAKE AND NEARSHORE STATIONS

STATION/POSITION TIME  TEMP    WIND        PRES    WAVE
                       AIR SEA DIR/SP/G            HT/PER
                 (UTC) (F)     (DEG/KT/KT) (MB)    (FT/S)
PASCAGOULA       1300   68     130/  2/  2 1014.2
WAVELAND YACHT   1300   65 71  360/  5/  6 1014.1
GRAND ISLE       1300   72 71   10/  5/  6 1015.6
SOUTHWEST PASS   1300   69 59   20/  4/  4 1015.4
NEW CANAL        1300   68 69   20/  5/  6 1015.7
SHELL BEACH      1300   67 67   10/  7/  8 1014.8

OFFSHORE STATIONS

STATION/POSITION TIME  TEMP    WIND        PRES    WAVE
                       AIR SEA DIR/SP/G            HT/PER
                 (UTC) (F)     (DEG/KT/KT) (MB)    (FT/S)
64 S DAUPHIN ISL 1340   68 68  360/  8/ 10 1014.6

$$




USA.gov is the U.S. government's official web portal to all federal, state and local government web resources and services.